Wind_Speed
21 21 20 20 21 22 25 27 29 30 28 29 31 34 32 30 33 35 38 39 40 41 41 40 37 38 39 37 34 36 35 35 35 34 34 33 33 32 32 31 31 30 30 30
23 24 24 24 25 25 26 27 27 26 24 26 28 28 27 29 30 33 37 40 41 43 42 39 38 37 37 35 35 36 37 37 37 36 36 36 35 35 34 33 33 32 31 31
25 26 28 28 29 29 28 27 27 27 26 27 29 27 26 27 30 34 39 41 43 44 44 43 42 40 38 38 36 37 38 39 39 39 38 37 36 36 36 35 34 33 32 32
23 26 29 30 31 30 29 28 29 30 29 29 30 32 30 31 33 37 40 43 44 44 45 44 43 41 39 38 37 38 40 40 40 39 37 35 36 35 35 35 34 33 32 32
20 24 27 29 29 30 31 31 32 33 33 32 33 37 35 36 39 41 42 44 45 45 44 43 42 41 40 37 36 36 38 39 38 36 34 34 34 33 34 33 31 31 31 31
13 18 22 24 26 29 30 31 32 33 34 35 33 38 40 40 42 44 45 45 45 45 44 44 43 43 41 40 38 36 34 33 32 31 31 32 32 32 32 30 30 31 32 34
6 9 12 15 18 21 24 25 27 29 31 33 32 36 40 40 43 45 47 47 47 47 47 46 45 44 42 41 40 38 36 33 31 30 30 31 31 31 31 31 31 33 34 36
7 9 11 13 15 16 18 21 23 25 26 26 28 33 36 39 41 43 44 46 48 49 50 49 47 47 47 47 45 43 41 39 35 34 34 34 33 33 33 34 35 36 37 38
8 8 12 14 16 18 19 22 25 28 30 30 29 29 33 36 40 42 44 46 47 50 51 52 51 48 50 49 47 46 45 43 41 39 38 37 37 37 37 37 37 39 39 40
8 9 10 13 16 18 20 21 24 28 33 35 35 34 36 38 41 44 45 47 49 50 52 53 54 52 51 50 49 49 49 49 46 43 40 39 39 39 39 39 40 40 41 41
10 10 9 13 16 18 20 21 24 26 29 33 36 36 35 39 42 45 47 50 52 52 52 53 54 53 49 49 48 48 48 48 46 43 40 39 38 38 39 40 39 38 38 37
13 13 13 15 17 18 19 21 23 26 28 30 35 37 35 37 40 43 45 47 49 50 50 48 48 48 46 45 42 42 43 43 43 41 39 37 36 36 37 36 35 35 34 33
16 16 17 18 20 20 21 22 24 25 27 29 32 33 34 35 37 38 40 41 42 42 40 38 37 35 35 36 36 36 37 38 38 37 36 35 34 34 34 34 35 34 33 33
18 18 19 20 22 23 23 24 25 26 28 29 29 29 28 31 31 31 32 32 31 31 32 29 28 28 28 29 30 30 32 33 34 35 34 34 34 34 34 34 34 34 34 34
22 21 21 21 23 24 24 24 26 27 27 27 26 26 26 28 28 26 25 23 23 21 22 22 24 24 25 26 28 29 30 31 33 34 34 34 34 34 34 34 33 33 33 34
27 26 25 24 25 25 24 25 26 25 25 25 25 24 25 25 24 21 19 17 16 18 18 18 19 21 22 24 26 28 30 31 32 33 33 34 34 33 33 33 33 33 33 33
31 30 29 28 28 27 26 25 25 24 23 23 23 22 21 21 21 19 17 15 14 14 15 17 19 21 23 25 27 28 29 30 31 31 32 32 32 32 32 32 32 33 33 33
31 31 32 31 30 29 27 25 24 23 22 21 20 20 19 19 19 19 17 16 15 15 15 17 19 21 23 24 26 27 28 28 28 29 29 30 30 32 32 32 31 31 32 31
28 31 32 32 32 30 27 26 23 22 20 20 20 19 18 17 17 18 17 16 16 15 15 16 17 18 20 21 23 24 24 24 25 25 25 26 27 27 27 27 26 26 26 26
25 27 29 29 31 30 26 25 22 22 20 20 19 18 17 16 16 17 17 17 16 16 16 16 16 16 17 17 18 19 20 20 20 21 21 22 22 22 22 21 20 20 21 22
24 24 25 27 30 31 28 27 25 23 22 21 20 19 18 17 17 17 17 17 16 15 15 15 14 14 14 14 15 15 16 16 16 17 17 16 16 16 15 15 16 17 19 20
24 25 25 26 29 29 30 31 28 26 23 22 21 20 19 18 17 17 17 17 16 15 14 12 11 11 11 11 12 12 12 12 12 12 12 12 12 12 12 13 15 16 18 19
24 25 26 26 27 28 31 31 30 28 25 23 23 22 20 18 17 17 17 16 15 14 13 11 10 10 9 9 9 9 10 10 10 10 10 10 11 11 11 13 14 15 16 18
22 24 25 25 25 28 29 31 31 29 26 25 24 23 21 20 19 18 17 16 15 14 13 11 10 9 7 6 6 6 7 8 8 9 9 9 9 10 11 12 13 14 15 17
23 23 23 23 22 24 25 27 29 29 28 26 26 25 24 22 20 20 19 18 17 15 14 12 11 9 8 7 5 5 5 6 7 8 8 9 9 9 10 11 13 14 16 18
25 24 24 22 22 23 22 23 26 27 27 26 26 25 25 24 22 21 21 20 19 18 16 15 13 12 10 9 8 7 7 7 7 8 9 9 10 10 11 12 13 15 17 19
Wind_Direction
240 239 238 237 238 238 238 239 240 240 236 241 245 248 248 247 253 259 262 264 266 267 271 269 269 272 268 262 260 262 264 262 265 270 273 277 280 283 285 287 288 289 289 289
238 238 238 238 238 240 242 243 245 244 237 240 244 249 251 251 254 259 262 264 267 269 271 272 276 278 271 267 264 262 262 260 264 266 269 273 277 279 281 283 284 285 285 285
238 238 240 241 243 245 247 248 250 247 237 236 240 241 244 245 250 255 260 265 269 272 273 273 273 273 272 272 270 267 264 263 260 261 265 269 273 275 277 278 279 281 281 281
239 241 242 245 248 251 251 252 253 253 247 237 239 241 237 240 244 250 257 263 268 271 273 274 273 273 272 272 270 268 267 264 262 261 261 266 270 273 275 275 276 277 279 280
239 241 246 249 252 254 255 255 256 258 256 250 241 246 243 242 247 251 256 261 266 269 272 273 273 273 274 273 272 267 266 262 262 263 264 270 271 273 274 273 274 276 279 282
243 245 250 254 256 258 261 261 261 262 263 260 252 250 251 248 252 256 260 263 266 267 269 270 272 273 273 272 271 270 268 264 265 269 271 272 272 273 273 274 276 278 281 285
256 254 258 259 259 261 265 267 268 266 265 265 262 256 257 255 253 255 258 260 263 264 265 267 268 270 270 270 271 272 271 273 275 276 274 274 274 273 274 275 277 279 282 284
265 265 266 266 265 264 265 270 273 275 272 269 264 262 262 260 259 258 259 260 261 262 264 265 267 266 267 269 270 273 274 275 276 277 276 276 275 274 276 278 279 280 282 285
279 276 275 276 276 274 273 273 277 278 280 279 273 268 266 265 264 262 260 259 260 261 262 264 266 267 265 265 266 269 272 273 274 275 274 273 273 273 275 277 279 281 284 285
291 285 278 280 281 283 282 281 279 279 281 282 279 274 270 269 267 264 261 260 259 261 262 263 265 267 267 267 266 268 269 272 272 273 273 273 272 272 273 276 279 281 284 285
295 296 292 286 286 290 291 291 289 287 287 287 288 285 282 277 272 268 266 264 263 263 265 265 266 269 269 271 270 268 270 268 269 271 272 274 273 272 273 275 278 280 282 284
303 304 303 297 297 298 300 302 300 298 298 297 296 298 294 286 279 275 271 269 266 266 265 267 265 267 269 270 269 268 268 266 267 269 270 271 271 272 273 274 276 279 281 282
299 299 300 300 301 302 306 306 306 305 305 306 306 307 303 297 291 286 281 277 273 268 268 267 267 268 268 267 267 266 264 263 264 266 268 269 270 271 272 274 276 278 279 280
295 294 295 297 299 300 303 306 308 309 311 313 314 313 311 307 303 298 291 284 281 275 273 270 266 269 267 265 264 263 261 260 261 264 266 268 269 271 272 273 275 276 277 278
292 291 291 292 293 295 300 304 307 310 314 317 321 321 318 315 311 305 298 291 285 279 279 275 266 265 264 261 260 258 258 259 260 263 265 267 269 270 271 272 274 275 275 276
292 291 290 290 291 293 298 301 304 308 314 319 323 322 320 323 320 316 310 300 289 281 279 276 269 265 261 258 256 256 257 258 260 261 263 266 268 269 270 271 273 273 274 275
288 289 289 288 287 289 294 297 303 307 312 318 323 324 323 326 329 328 327 315 301 289 283 278 271 266 263 260 257 255 257 258 259 260 262 263 264 267 268 270 271 273 274 275
281 283 285 285 282 284 290 293 298 303 311 317 324 328 327 326 327 328 326 319 309 298 288 282 276 272 268 264 260 257 257 257 258 259 259 260 261 264 267 269 271 272 274 275
282 279 279 280 279 279 282 287 293 298 306 312 320 327 330 329 326 325 327 324 316 308 299 291 284 279 274 268 263 260 259 258 258 258 259 259 260 264 268 270 272 274 276 277
295 289 283 280 280 283 279 280 286 289 295 302 311 319 328 333 333 333 333 330 325 318 310 302 297 290 283 277 271 266 261 259 258 258 260 262 264 267 270 272 275 277 279 282
307 301 293 287 283 283 285 278 279 284 289 296 303 312 321 327 331 334 336 337 333 328 321 314 308 299 291 285 278 271 264 260 258 256 258 262 266 268 271 274 277 279 283 287
313 307 300 294 288 287 287 283 280 279 284 291 296 301 308 315 320 324 329 334 337 336 332 327 320 311 301 291 282 273 265 262 260 259 259 262 266 269 272 276 282 286 290 293
315 310 302 297 292 289 286 284 282 280 281 284 288 291 295 300 305 311 315 321 327 332 334 331 326 319 310 300 287 273 266 261 260 261 262 265 268 273 278 283 287 291 294 296
314 311 308 303 297 289 286 283 281 279 278 279 282 285 287 290 293 297 302 308 313 318 324 326 327 324 319 310 297 281 269 262 259 259 262 266 271 276 281 285 289 293 297 301
314 311 311 308 300 292 289 285 281 278 277 280 281 281 281 283 286 288 291 296 301 306 309 312 314 313 312 308 300 289 279 270 264 263 266 270 273 276 281 287 292 298 303 307
311 312 312 312 304 297 294 288 283 279 278 278 279 278 277 278 281 284 286 289 293 295 296 297 297 298 298 296 292 287 281 274 270 269 271 273 276 280 285 291 296 302 307 312
Height
5861 5864 5864 5865 5866 5867 5868 5869 5871 5873 5875 5875 5875 5876 5878 5879 5880 5881 5882 5883 5884 5884 5884 5885 5885 5886 5887 5887 5888 5888 5888 5887 5887 5887 5887 5886 5886 5886 5885 5885 5884 5883 5882 5881
5857 5859 5859 5860 5860 5862 5863 5865 5866 5868 5869 5869 5870 5871 5872 5873 5874 5874 5874 5875 5875 5875 5876 5877 5877 5879 5878 5878 5878 5879 5878 5877 5878 5878 5878 5878 5878 5878 5878 5877 5876 5876 5875 5874
5852 5854 5854 5854 5855 5857 5859 5861 5861 5862 5863 5864 5865 5867 5868 5867 5868 5868 5867 5867 5867 5867 5868 5869 5870 5870 5870 5869 5869 5868 5868 5867 5868 5867 5867 5869 5869 5869 5869 5868 5868 5867 5867 5866
5847 5848 5848 5849 5851 5852 5854 5855 5855 5855 5857 5859 5861 5861 5864 5863 5862 5861 5860 5859 5858 5858 5858 5859 5859 5859 5860 5860 5860 5860 5858 5858 5856 5857 5858 5858 5859 5860 5859 5859 5859 5859 5858 5858
5841 5842 5843 5844 5846 5846 5847 5848 5848 5848 5850 5853 5855 5854 5857 5857 5856 5855 5853 5852 5851 5850 5849 5849 5849 5849 5849 5849 5849 5848 5847 5847 5847 5847 5848 5849 5850 5850 5850 5850 5850 5850 5850 5849
5837 5838 5839 5839 5840 5840 5840 5841 5842 5842 5843 5845 5848 5847 5848 5850 5849 5847 5846 5844 5842 5841 5840 5840 5839 5839 5838 5838 5838 5836 5836 5837 5838 5839 5840 5841 5842 5842 5842 5842 5842 5842 5842 5841
5835 5835 5835 5835 5835 5835 5835 5835 5835 5835 5836 5836 5839 5838 5839 5839 5839 5837 5836 5834 5833 5831 5831 5830 5829 5828 5827 5826 5827 5827 5828 5829 5830 5831 5832 5833 5833 5834 5834 5834 5835 5834 5834 5833
5833 5833 5832 5831 5831 5831 5830 5830 5830 5829 5828 5828 5829 5829 5829 5827 5827 5827 5825 5824 5822 5821 5820 5818 5817 5817 5817 5817 5818 5819 5819 5820 5822 5823 5824 5825 5826 5826 5826 5826 5826 5826 5825 5823
5830 5830 5829 5828 5827 5827 5826 5825 5825 5823 5820 5819 5821 5822 5819 5817 5816 5816 5814 5813 5811 5809 5808 5806 5804 5803 5805 5806 5807 5809 5810 5811 5813 5814 5815 5816 5816 5817 5817 5817 5817 5816 5815 5814
5827 5826 5826 5824 5823 5822 5821 5820 5819 5816 5813 5811 5810 5810 5810 5808 5806 5804 5802 5800 5799 5797 5796 5794 5793 5792 5794 5795 5797 5798 5799 5801 5803 5804 5804 5805 5806 5807 5807 5807 5807 5806 5805 5803
5823 5823 5823 5821 5819 5817 5816 5814 5812 5809 5807 5803 5799 5802 5800 5797 5793 5791 5789 5788 5787 5785 5783 5782 5782 5782 5783 5784 5785 5787 5788 5790 5791 5792 5793 5794 5795 5796 5796 5796 5796 5796 5795 5794
5821 5820 5819 5817 5815 5813 5811 5809 5806 5803 5800 5796 5791 5792 5787 5784 5780 5778 5776 5773 5772 5772 5771 5769 5770 5771 5772 5773 5774 5776 5777 5779 5780 5782 5783 5784 5785 5786 5786 5786 5786 5786 5785 5785
5818 5817 5816 5814 5813 5810 5807 5804 5800 5797 5794 5789 5784 5783 5776 5772 5768 5765 5763 5760 5759 5759 5759 5759 5760 5761 5762 5763 5765 5766 5767 5769 5770 5771 5773 5773 5774 5775 5776 5777 5777 5777 5777 5776
5815 5813 5812 5810 5807 5804 5802 5799 5795 5791 5787 5782 5778 5773 5768 5762 5758 5754 5752 5749 5748 5748 5749 5749 5750 5752 5752 5754 5755 5757 5758 5760 5761 5762 5763 5764 5765 5766 5767 5767 5768 5767 5767 5767
5810 5808 5806 5804 5801 5799 5797 5794 5790 5786 5782 5777 5772 5767 5762 5756 5751 5746 5743 5740 5740 5740 5741 5741 5742 5743 5744 5745 5746 5748 5749 5750 5751 5752 5753 5754 5755 5756 5757 5758 5758 5758 5758 5758
5802 5801 5800 5798 5795 5793 5791 5788 5785 5781 5777 5772 5767 5762 5757 5751 5746 5741 5737 5735 5734 5734 5735 5735 5735 5735 5736 5736 5738 5739 5740 5741 5742 5743 5744 5745 5746 5747 5748 5748 5748 5749 5749 5749
5795 5794 5792 5791 5788 5786 5786 5783 5780 5776 5772 5768 5763 5759 5753 5748 5743 5738 5734 5732 5730 5729 5729 5728 5728 5728 5728 5728 5729 5730 5730 5731 5732 5733 5735 5735 5736 5737 5738 5739 5739 5739 5739 5739
5788 5786 5784 5782 5782 5780 5781 5777 5774 5771 5767 5764 5759 5754 5749 5745 5740 5736 5732 5729 5726 5725 5723 5722 5721 5721 5720 5720 5720 5721 5722 5723 5724 5724 5726 5727 5727 5728 5729 5730 5730 5730 5730 5730
5780 5779 5776 5774 5772 5772 5773 5770 5768 5765 5762 5759 5755 5751 5747 5742 5737 5733 5729 5726 5723 5721 5719 5717 5716 5714 5713 5713 5713 5713 5714 5715 5716 5717 5718 5719 5719 5720 5721 5721 5721 5722 5722 5722
5773 5771 5769 5766 5763 5762 5765 5763 5761 5760 5757 5754 5751 5747 5744 5740 5735 5731 5727 5723 5720 5717 5715 5713 5711 5709 5708 5708 5707 5707 5707 5708 5709 5710 5711 5712 5712 5713 5714 5714 5715 5715 5715 5715
5766 5763 5761 5758 5755 5753 5755 5754 5754 5754 5751 5748 5745 5742 5740 5736 5733 5729 5725 5721 5718 5714 5712 5709 5707 5706 5704 5703 5703 5703 5703 5704 5705 5705 5706 5706 5707 5708 5708 5709 5709 5709 5709 5708
5759 5756 5754 5751 5748 5749 5747 5745 5746 5745 5744 5742 5739 5738 5735 5733 5729 5726 5723 5719 5716 5713 5710 5707 5705 5703 5701 5700 5700 5699 5700 5700 5700 5701 5702 5702 5703 5703 5704 5704 5704 5704 5703 5702
5755 5752 5747 5745 5744 5741 5738 5737 5736 5736 5736 5735 5733 5732 5731 5729 5726 5723 5720 5717 5714 5711 5708 5706 5703 5701 5700 5698 5697 5697 5697 5697 5697 5698 5699 5699 5700 5700 5700 5700 5699 5699 5698 5697
5752 5747 5742 5738 5736 5733 5731 5729 5728 5728 5728 5727 5726 5725 5725 5724 5722 5720 5717 5715 5712 5709 5707 5704 5702 5700 5698 5696 5695 5695 5694 5694 5695 5695 5696 5696 5696 5696 5695 5695 5695 5694 5693 5691
5747 5742 5738 5734 5731 5727 5724 5722 5720 5719 5719 5719 5718 5717 5717 5717 5716 5714 5712 5710 5708 5706 5704 5702 5700 5698 5697 5695 5694 5693 5692 5692 5692 5692 5692 5692 5692 5692 5691 5691 5690 5689 5687 5685
5740 5736 5732 5729 5725 5721 5718 5715 5713 5711 5711 5710 5710 5709 5709 5709 5709 5708 5706 5704 5703 5702 5700 5699 5697 5696 5694 5693 5692 5691 5690 5690 5689 5689 5689 5688 5688 5688 5687 5686 5685 5684 5682 5680